RH
50 45 46 40 38 34 31 33 40 41 39 34 33 36 33 27 28 25 28 26 24 23 24 26 32 52 59 59 66 96 100 100 100 100 100 100 90 100 100 100 100 86 98
48 44 39 36 36 34 33 32 31 32 36 38 37 37 34 34 33 30 26 27 28 24 23 23 24 25 28 38 63 83 100 95 80 95 100 100 83 91 80 71 54 47 48
49 43 40 36 33 31 30 28 27 26 26 27 30 34 36 35 34 34 33 32 27 25 26 26 26 28 29 33 36 39 41 47 53 78 85 61 62 50 39 39 37 40 40
49 41 36 32 31 31 30 28 26 26 24 24 23 24 26 30 30 30 31 30 30 28 27 25 28 30 32 33 35 40 44 40 40 37 47 44 39 39 37 37 36 41 41
50 44 37 36 33 31 30 29 28 27 25 24 22 22 21 23 25 26 27 28 27 26 26 30 30 27 28 28 31 33 35 37 37 36 38 38 39 39 38 37 37 43 40
44 41 42 41 38 35 33 32 31 29 28 27 25 24 23 22 22 23 23 24 24 24 24 25 25 25 27 28 29 32 33 36 35 35 39 41 38 40 36 37 40 43 43
46 48 44 36 33 32 31 30 29 29 28 27 27 27 25 24 23 23 23 23 24 24 25 26 26 27 28 28 28 30 31 33 32 34 35 37 36 38 41 39 42 39 38
42 36 30 28 27 29 27 26 24 23 24 24 24 25 25 25 24 23 24 25 24 24 24 26 27 28 28 28 30 30 32 33 32 34 34 37 38 38 40 42 38 35 34
35 30 27 26 26 22 22 21 22 21 20 19 20 20 18 18 17 17 16 15 15 15 16 18 19 20 26 30 28 29 28 31 32 33 32 34 35 36 37 34 34 33 36
37 36 31 29 25 24 22 21 22 22 21 20 19 18 18 17 17 16 16 15 15 15 16 16 15 16 16 18 20 22 23 23 23 25 27 29 32 34 34 33 34 37 50
38 37 32 30 27 23 22 20 20 20 19 19 18 16 15 15 16 16 15 14 14 13 14 15 15 15 16 16 17 19 20 22 24 25 25 28 30 32 34 37 41 53 69
39 40 40 36 32 28 29 28 27 28 29 25 22 16 15 15 16 17 17 16 16 15 14 15 15 15 16 17 19 21 23 25 28 30 30 32 35 40 41 50 62 77 78
58 55 52 51 54 56 52 47 40 39 35 33 29 26 26 24 24 26 23 23 22 18 16 18 18 19 20 21 25 27 31 34 33 32 35 39 44 51 58 73 83 83 86
79 81 76 78 83 74 67 58 48 45 44 40 34 35 32 31 29 29 29 25 23 23 22 21 22 22 23 25 28 31 35 36 38 42 42 51 69 77 85 94 90 91 98
72 77 77 83 82 79 68 54 47 45 46 40 37 33 32 32 36 35 36 37 37 39 35 32 29 28 30 30 32 35 39 48 55 59 62 70 70 87 87 89 90 100 100
81 85 82 76 72 65 54 47 50 45 37 37 32 36 41 41 45 48 44 51 52 55 52 43 41 41 38 40 43 46 49 53 62 70 72 82 86 90 91 92 100 100 100
66 63 61 58 51 46 38 42 45 43 42 42 43 45 48 53 55 59 56 60 66 69 66 66 64 62 60 58 64 61 58 62 67 68 76 87 92 96 94 99 100 100 100
53 47 46 42 42 45 47 48 46 44 43 42 43 47 49 53 57 62 68 74 72 79 86 81 81 88 87 83 84 86 88 92 92 92 92 92 97 100 100 100 100 100 94
53 51 52 50 49 49 49 46 46 45 44 46 46 46 48 50 50 57 65 74 84 84 85 90 90 88 86 94 94 93 94 95 96 99 100 100 100 100 100 100 100 96 97
56 58 58 58 60 60 64 72 80 89 87 86 82 78 68 64 59 55 59 66 78 86 89 88 91 100 99 99 99 99 100 100 100 100 100 100 100 100 100 100 96 92 92
61 63 66 71 76 82 94 96 94 90 86 86 88 93 96 84 77 76 79 74 73 83 84 87 90 91 97 100 99 98 99 100 98 98 99 99 98 100 100 96 92 88 97
78 73 78 84 88 90 92 92 88 89 89 89 86 86 91 98 100 100 96 95 97 98 96 96 92 90 93 96 100 100 100 100 100 99 100 100 100 100 100 100 98 100 100
79 80 86 88 86 88 89 90 89 86 86 88 89 89 88 90 92 95 98 97 98 100 100 100 98 96 91 89 93 98 100 100 100 100 100 100 100 100 100 100 100 100 100
69 73 75 77 82 82 81 83 85 86 87 82 78 83 90 92 95 98 95 92 94 93 94 98 100 100 100 100 100 99 100 100 99 100 100 100 100 100 100 100 100 100 100
60 61 60 59 58 58 58 58 60 59 62 65 67 67 67 67 69 71 80 92 96 97 96 94 91 92 95 96 99 100 100 100 100 100 100 100 100 100 100 100 100 100 100
44 45 44 43 41 39 37 36 35 34 31 32 32 32 35 37 38 38 41 47 55 67 84 92 96 96 93 90 89 89 92 94 98 100 100 100 100 100 100 100 100 100 100
Wind_Speed
98 98 100 98 99 97 95 95 97 96 96 97 98 99 100 99 97 98 99 97 96 94 96 96 98 102 103 103 101 103 104 103 104 105 108 106 107 105 110 113 112 112 112
91 92 92 94 97 98 96 97 97 97 97 96 96 97 99 101 102 101 101 100 100 98 98 96 96 96 97 97 99 101 104 105 105 105 105 108 109 109 110 110 107 105 102
88 88 88 90 91 92 93 92 94 95 96 96 96 97 99 99 99 100 101 103 103 100 98 100 98 98 98 98 98 100 102 102 104 106 109 107 106 107 104 104 102 99 99
85 84 85 85 86 87 88 89 90 91 93 94 94 95 95 96 98 99 100 101 102 103 102 100 99 99 99 98 98 100 103 102 103 103 103 104 106 104 103 100 97 97 98
79 81 81 82 83 83 84 84 85 87 87 88 89 91 93 94 94 94 96 97 99 100 100 100 101 100 98 98 99 100 101 101 101 100 101 101 102 101 98 95 95 95 95
80 78 78 80 80 81 82 83 83 83 84 85 85 86 87 89 90 91 92 93 95 96 95 96 98 98 98 98 98 100 100 100 100 99 97 97 96 96 98 93 92 92 92
77 76 78 78 77 77 78 80 82 84 85 86 87 87 88 88 88 89 91 91 92 93 93 94 96 96 96 97 97 97 97 98 96 95 94 94 95 94 95 93 92 88 84
76 78 77 76 75 75 74 74 76 77 78 80 82 84 86 88 90 91 93 94 95 95 94 95 96 97 97 97 97 98 97 97 96 95 96 96 96 97 92 88 82 77 73
76 76 74 74 74 72 71 70 70 72 73 75 76 77 79 81 82 83 85 87 88 89 90 90 91 92 94 96 97 97 95 93 93 93 92 89 87 84 81 78 73 69 67
73 71 71 72 72 71 70 69 69 69 69 72 74 75 76 77 78 80 81 82 84 84 84 84 83 83 82 84 85 84 82 82 81 81 79 78 75 74 72 70 66 64 61
70 70 70 70 70 69 67 65 66 67 68 69 71 72 72 72 74 76 78 80 82 82 81 81 81 81 80 79 77 76 75 74 71 70 70 68 68 65 63 61 59 57 53
68 67 67 68 68 68 67 65 65 65 67 66 69 67 67 68 68 70 71 73 74 75 74 74 74 74 74 73 72 71 68 66 64 63 61 60 58 58 56 55 53 51 51
68 68 68 68 67 66 66 65 64 64 64 65 66 65 65 64 62 63 62 63 64 64 63 64 65 65 64 63 62 61 59 59 58 56 56 55 54 52 52 51 48 49 47
68 69 68 66 67 68 68 66 65 63 62 62 62 61 59 58 55 54 54 53 53 53 54 54 55 55 56 56 56 56 54 54 53 53 52 51 50 50 48 45 46 45 47
66 65 66 66 67 67 68 66 63 61 61 60 57 55 52 50 49 48 47 47 46 47 48 48 48 49 51 51 51 51 51 50 51 50 49 50 50 47 47 45 46 47 46
61 62 63 63 64 65 66 62 59 58 57 55 50 47 46 46 45 46 46 45 44 44 44 42 43 43 44 44 44 45 46 47 48 48 46 46 48 48 48 47 46 44 42
60 60 60 61 61 61 59 55 51 49 47 45 44 44 44 43 43 44 43 43 41 41 40 39 39 39 40 39 38 39 41 42 43 43 43 44 45 45 44 41 40 40 44
57 56 56 55 53 51 48 48 48 48 47 46 45 46 45 45 44 44 42 41 40 40 39 39 37 37 37 38 38 38 38 39 39 39 40 41 42 42 41 42 44 49 48
50 49 49 48 47 47 47 48 48 49 48 47 46 45 45 46 46 46 46 44 43 42 40 38 38 38 35 35 37 38 39 40 40 41 42 44 44 44 45 48 49 45 44
50 50 49 48 49 48 47 47 47 49 49 48 47 45 46 48 47 47 48 47 47 46 45 44 42 40 40 39 38 38 37 37 39 43 45 47 48 48 48 46 46 47 48
52 52 51 50 50 50 49 49 49 47 47 47 48 47 46 47 47 47 47 48 48 49 50 50 51 50 47 45 44 42 42 43 43 44 45 46 46 47 48 50 51 52 54
53 52 52 53 52 51 50 50 48 46 45 46 46 46 46 46 47 48 48 48 48 48 49 49 50 51 53 53 50 50 50 51 51 51 51 52 53 54 56 58 58 54 52
54 53 53 53 53 53 52 51 51 50 50 49 48 46 44 44 45 47 49 50 50 50 49 49 49 50 51 52 54 55 56 57 56 56 55 54 54 56 56 54 53 52 53
56 56 55 55 55 55 54 54 53 53 53 53 52 51 50 49 48 48 48 48 48 49 50 50 50 51 51 51 52 54 56 57 56 55 55 55 55 55 53 53 54 55 57
60 60 60 59 58 57 57 57 56 56 57 57 56 55 55 54 55 54 54 54 54 53 53 52 51 52 54 54 54 55 56 57 58 58 58 58 58 57 56 57 58 59 61
62 62 61 61 60 59 58 58 58 59 58 58 58 57 57 57 57 57 57 57 57 58 59 59 58 57 56 54 54 56 58 59 59 59 59 58 58 59 58 58 60 60 61
Wind_Direction
242 245 248 250 252 252 253 254 254 255 255 257 259 262 263 263 263 265 265 266 267 267 268 268 269 270 273 275 278 278 280 281 283 284 285 288 290 293 292 295 296 299 300
247 248 248 250 251 251 253 254 255 256 257 258 259 259 261 263 266 268 268 268 269 270 270 270 271 272 273 275 276 277 279 281 283 284 284 287 289 292 292 294 296 297 300
249 250 251 252 252 253 254 255 256 256 257 258 258 259 261 262 264 265 267 270 271 271 271 272 272 273 276 277 277 279 278 280 282 283 285 288 289 290 292 293 295 298 299
250 251 252 254 254 254 255 255 256 257 258 258 259 259 260 261 263 264 266 267 269 272 274 274 273 273 274 275 276 277 278 280 281 282 283 285 288 290 291 292 295 297 298
253 254 255 255 256 257 258 259 259 259 259 259 260 260 261 261 262 263 264 266 267 268 270 272 274 274 274 274 275 276 278 278 280 282 283 284 286 288 291 293 295 296 296
253 255 256 257 257 258 259 260 260 261 261 261 261 262 263 263 263 264 265 265 266 268 269 269 270 272 274 275 275 276 279 280 280 281 283 284 286 287 289 292 292 293 296
256 258 259 259 260 260 260 261 261 262 263 263 263 263 264 264 265 265 265 266 266 267 268 269 271 272 272 273 275 276 277 278 279 280 281 283 284 286 287 290 291 292 293
257 258 260 261 262 262 262 263 263 264 264 264 264 264 264 265 265 266 266 266 267 268 268 269 269 270 271 272 273 274 275 276 277 279 280 281 283 285 287 287 289 289 290
257 259 262 263 263 264 264 265 266 266 265 265 265 265 264 264 265 266 267 268 268 268 269 269 270 270 269 270 272 273 275 276 276 277 279 280 280 282 283 284 284 286 284
257 260 262 264 266 266 266 267 267 265 265 266 266 266 266 266 267 267 267 268 268 269 270 271 271 271 270 270 271 272 273 274 275 276 277 278 279 279 279 280 281 281 281
259 262 264 266 268 269 270 269 269 269 269 268 268 268 268 268 268 268 269 269 269 270 271 272 273 273 273 273 274 274 274 275 276 276 276 276 276 277 277 277 277 276 274
262 264 267 269 271 272 273 273 272 272 271 272 272 271 270 269 268 268 268 269 270 271 271 271 271 272 272 273 273 273 273 273 273 273 273 273 274 273 273 272 273 273 275
266 269 271 272 274 275 275 275 274 272 272 271 271 272 273 274 274 273 273 272 272 272 271 270 269 269 269 271 270 270 269 269 269 270 270 269 270 269 269 270 269 271 277
264 267 269 271 272 272 273 273 274 274 273 272 274 275 275 275 276 274 274 275 274 273 271 268 267 267 266 266 267 266 266 266 266 266 267 267 267 266 267 266 269 274 277
262 264 266 268 270 271 272 273 273 274 274 275 276 274 275 274 274 275 276 277 276 274 273 271 269 268 266 265 265 265 264 263 262 264 265 266 266 265 269 272 274 279 278
261 262 263 265 267 269 271 274 276 276 276 276 275 273 275 274 274 276 275 277 276 275 274 275 273 272 269 267 266 265 264 264 263 262 264 264 265 268 269 271 276 275 276
260 262 264 265 267 269 273 274 273 272 272 272 273 273 272 271 273 274 276 277 276 276 275 276 276 274 272 270 268 266 265 265 264 263 261 262 264 266 269 271 270 273 276
260 262 264 265 266 268 270 272 273 273 273 273 272 272 271 272 273 272 273 273 276 276 276 276 275 273 270 268 266 266 265 265 264 264 264 265 266 267 267 271 269 273 277
261 262 264 266 268 270 272 273 274 274 273 272 271 272 272 272 270 270 270 271 273 275 274 273 275 272 271 268 265 265 266 266 266 266 267 269 269 269 267 270 273 273 274
262 264 266 269 271 272 273 274 273 273 272 272 272 272 272 271 271 271 270 270 270 270 271 273 272 272 270 268 266 266 266 265 266 265 265 268 266 266 268 269 272 273 276
261 264 265 267 269 270 270 270 271 271 273 273 271 270 270 269 270 271 270 269 269 269 269 270 270 270 269 268 268 267 266 267 269 269 269 270 271 271 270 272 274 275 279
259 260 261 263 264 265 267 269 268 268 269 270 269 269 267 266 267 268 268 268 269 270 269 268 267 265 265 266 266 267 267 269 270 273 274 273 274 274 273 275 276 276 276
258 258 258 260 262 265 266 267 267 267 266 267 268 268 266 265 266 265 266 266 266 267 268 268 268 266 265 264 264 265 265 266 268 269 269 271 271 271 274 275 274 273 273
257 258 258 258 259 261 263 264 265 266 267 268 268 268 267 266 265 265 265 265 266 266 265 264 265 265 265 265 265 265 265 266 267 266 266 268 270 271 271 272 271 271 274
256 257 258 259 261 261 263 264 265 266 266 266 266 267 267 266 265 265 264 264 264 265 265 266 264 263 262 262 262 263 264 265 266 266 267 268 269 270 269 269 270 272 274
256 257 258 260 262 263 264 264 265 265 266 267 268 268 268 267 267 267 266 265 264 264 264 264 263 264 264 265 264 264 264 263 263 264 265 266 267 267 269 269 269 271 274